TimeEEST,TemperatureF,Dew PointF,Humidity,Sea Level PressureIn,VisibilityMPH,Wind Direction,Wind SpeedMPH,Gust SpeedMPH,PrecipitationIn,Events,Conditions,WindDirDegrees,DateUTC
12:20 AM,77.0,66.2,69,29.95,-9999.0,NNE,8.1,-,N/A,,Clear,30,2013-08-06 21:20:00
12:50 AM,77.0,66.2,69,29.95,-9999.0,NE,6.9,-,N/A,,Clear,40,2013-08-06 21:50:00
1:20 AM,77.0,66.2,69,29.95,-9999.0,Variable,5.8,-,N/A,,Clear,0,2013-08-06 22:20:00
1:50 AM,75.2,66.2,73,29.95,-9999.0,NNE,6.9,-,N/A,,Clear,30,2013-08-06 22:50:00
2:20 AM,75.2,66.2,73,29.95,-9999.0,NNE,6.9,-,N/A,,Clear,30,2013-08-06 23:20:00
2:50 AM,75.2,66.2,73,29.92,-9999.0,NNE,5.8,-,N/A,,Clear,30,2013-08-06 23:50:00
3:00 AM,75,66,67,29.94,6,NNE,5.8,,,,,30,2013-08-07 00:00:00
3:20 AM,75.2,66.2,73,29.92,-9999.0,NE,6.9,-,N/A,,Clear,50,2013-08-07 00:20:00
3:50 AM,75.2,66.2,73,29.92,-9999.0,NE,6.9,-,N/A,,Clear,50,2013-08-07 00:50:00
4:20 AM,75.2,66.2,73,29.92,-9999.0,NE,5.8,-,N/A,,Clear,40,2013-08-07 01:20:00
4:50 AM,75.2,66.2,73,29.92,-9999.0,NNE,5.8,-,N/A,,Clear,30,2013-08-07 01:50:00
5:20 AM,73.4,66.2,78,29.95,-9999.0,NNE,8.1,-,N/A,,Clear,20,2013-08-07 02:20:00
5:50 AM,75.2,64.4,69,29.95,-9999.0,NNE,8.1,-,N/A,,Clear,20,2013-08-07 02:50:00
6:20 AM,75.2,64.4,69,29.95,6.2,NNE,6.9,-,N/A,,Partly Cloudy,30,2013-08-07 03:20:00
6:50 AM,75.2,64.4,69,29.95,6.2,NNE,8.1,-,N/A,,Partly Cloudy,20,2013-08-07 03:50:00
7:20 AM,77.0,64.4,65,29.95,6.2,NNE,6.9,-,N/A,,Partly Cloudy,30,2013-08-07 04:20:00
7:50 AM,77.0,62.6,61,29.95,6.2,NE,6.9,-,N/A,,Partly Cloudy,40,2013-08-07 04:50:00
8:20 AM,78.8,62.6,57,29.95,6.2,NE,11.5,-,N/A,,Partly Cloudy,50,2013-08-07 05:20:00
8:50 AM,80.6,60.8,51,29.98,6.2,Variable,11.5,-,N/A,,Scattered Clouds,0,2013-08-07 05:50:00
9:00 AM,80,61,43,29.97,6,ENE,11.5,,,,Partly Cloudy,60,2013-08-07 06:00:00
9:20 AM,82.4,57.2,42,29.98,6.2,ENE,11.5,-,N/A,,Scattered Clouds,70,2013-08-07 06:20:00
9:50 AM,80.6,51.8,37,29.98,6.2,ENE,13.8,-,N/A,,Scattered Clouds,70,2013-08-07 06:50:00
10:20 AM,82.4,53.6,37,29.98,6.2,NE,12.7,-,N/A,,Scattered Clouds,50,2013-08-07 07:20:00
10:50 AM,82.4,55.4,39,29.98,6.2,NNE,16.1,-,N/A,,Scattered Clouds,30,2013-08-07 07:50:00
11:20 AM,82.4,53.6,37,29.98,6.2,NNE,15.0,-,N/A,,Scattered Clouds,20,2013-08-07 08:20:00
11:50 AM,84.2,53.6,35,29.98,6.2,NNE,15.0,-,N/A,,Scattered Clouds,30,2013-08-07 08:50:00
12:20 PM,84.2,51.8,33,29.98,6.2,NNE,16.1,-,N/A,,Scattered Clouds,30,2013-08-07 09:20:00
12:50 PM,84.2,51.8,33,29.98,6.2,NNE,17.3,-,N/A,,Scattered Clouds,20,2013-08-07 09:50:00
1:20 PM,84.2,53.6,35,29.98,6.2,NNE,16.1,-,N/A,,Scattered Clouds,30,2013-08-07 10:20:00
1:50 PM,84.2,53.6,35,29.98,6.2,NNE,16.1,-,N/A,,Scattered Clouds,30,2013-08-07 10:50:00
2:20 PM,86.0,53.6,33,29.98,6.2,NE,16.1,-,N/A,,Scattered Clouds,40,2013-08-07 11:20:00
2:50 PM,84.2,53.6,35,29.98,6.2,NE,18.4,-,N/A,,Scattered Clouds,40,2013-08-07 11:50:00
3:00 PM,85,52,22,29.98,6,NE,18.4,,,,Partly Cloudy,40,2013-08-07 12:00:00
3:20 PM,84.2,55.4,37,29.98,6.2,NE,16.1,-,N/A,,Scattered Clouds,50,2013-08-07 12:20:00
3:50 PM,84.2,55.4,37,29.98,6.2,NE,17.3,-,N/A,,Scattered Clouds,40,2013-08-07 12:50:00
4:20 PM,84.2,57.2,40,29.98,6.2,NE,16.1,-,N/A,,Partly Cloudy,50,2013-08-07 13:20:00
4:50 PM,86.0,53.6,33,29.98,6.2,NE,15.0,-,N/A,,Partly Cloudy,40,2013-08-07 13:50:00
5:20 PM,84.2,55.4,37,29.98,-9999.0,NNE,15.0,-,N/A,,Clear,30,2013-08-07 14:20:00
5:50 PM,82.4,55.4,39,29.98,-9999.0,North,18.4,-,N/A,,Clear,10,2013-08-07 14:50:00
6:20 PM,82.4,57.2,42,29.98,-9999.0,NNE,16.1,-,N/A,,Clear,20,2013-08-07 15:20:00
6:50 PM,80.6,59.0,48,29.98,-9999.0,NNE,17.3,-,N/A,,Clear,20,2013-08-07 15:50:00
7:20 PM,80.6,60.8,51,29.98,-9999.0,NNE,13.8,-,N/A,,Clear,20,2013-08-07 16:20:00
8:20 PM,80.6,66.2,61,29.98,-9999.0,NNE,12.7,-,N/A,,Clear,30,2013-08-07 17:20:00
8:50 PM,80.6,66.2,61,30.01,-9999.0,NNE,12.7,-,N/A,,Clear,30,2013-08-07 17:50:00
9:00 PM,80,65,50,30.00,6,NNE,12.7,,,,,30,2013-08-07 18:00:00
9:20 PM,80.6,64.4,58,30.01,-9999.0,NE,9.2,-,N/A,,Clear,40,2013-08-07 18:20:00
9:50 PM,80.6,66.2,61,30.01,-9999.0,Variable,8.1,20.7,N/A,,Clear,0,2013-08-07 18:50:00
10:20 PM,78.8,66.2,65,30.01,-9999.0,NNE,12.7,-,N/A,,Clear,30,2013-08-07 19:20:00
10:50 PM,77.0,66.2,69,30.01,-9999.0,NNE,12.7,-,N/A,,Clear,30,2013-08-07 19:50:00
11:20 PM,77.0,66.2,69,30.01,-9999.0,NNE,11.5,-,N/A,,Clear,30,2013-08-07 20:20:00
11:50 PM,77.0,66.2,69,30.01,-9999.0,NE,9.2,-,N/A,,Clear,50,2013-08-07 20:50:00